This demonstration page uses our WeatherBlox Daily Observations layout. Learn more.

Left ArrowRight Arrow

39.29038, -76.61219

Hourly Observations for September 24, 2022

Temp ( °F °C ) Dew Point ( °F °C ) Humidity (%) Winds ( mph kmh ) Pressure ( in mb ) Visibility ( mi km ) Precip ( " mm )
12:54 am 00:54 undefined 59 15 39 3.9 47 47 undefined N/A 30.12 1020 N/A 0.00 0.00
1:54 am 01:54 undefined 58 14.4 39 3.9 49 49 undefined N/A 30.13 1020 N/A 0.00 0.00
2:54 am 02:54 undefined 58 14.4 38 3.3 47 47 undefined N/A 30.13 1020 N/A 0.00 0.00
3:54 am 03:54 undefined 57 13.9 37 2.8 47 47 undefined N/A 30.11 1020 N/A 0.00 0.00
4:54 am 04:54 undefined 55 12.8 39 3.9 55 55 undefined N/A 30.12 1020 N/A 0.00 0.00
5:54 am 05:54 undefined 55 12.8 40 4.4 57 57 undefined N/A 30.13 1020 N/A 0.00 0.00
6:54 am 06:54 undefined 54 12.2 39 3.9 57 57 undefined N/A 30.13 1020 N/A 0.00 0.00
7:54 am 07:54 undefined 56 13.3 40 4.4 55 55 undefined N/A 30.13 1020 N/A 0.00 0.00
8:54 am 08:54 undefined 58 14.4 39 3.9 49 49 undefined N/A 30.13 1020 N/A 0.00 0.00
9:54 am 09:54 undefined 61 16.1 40 4.4 46 46 undefined N/A 30.15 1021 N/A 0.00 0.00
10:54 am 10:54 undefined 63 17.2 41 5 44 44 undefined N/A 30.13 1020 N/A 0.00 0.00
11:54 am 11:54 undefined 65 18.3 42 5.6 43 43 undefined N/A 30.11 1020 N/A 0.00 0.00
12:54 pm 12:54 undefined 68 20 41 5 37 37 undefined N/A 30.08 1019 N/A 0.00 0.00
1:54 pm 13:54 undefined 70 21.1 41 5 35 35 undefined N/A 30.05 1018 N/A 0.00 0.00
2:54 pm 14:54 undefined 72 22.2 41 5 33 33 undefined N/A 30.01 1016 N/A 0.00 0.00
3:54 pm 15:54 undefined 71 21.7 41 5 34 34 undefined N/A 29.99 1016 N/A 0.00 0.00
4:54 pm 16:54 undefined 71 21.7 42 5.6 35 35 undefined N/A 29.97 1015 N/A 0.00 0.00
5:54 pm 17:54 undefined 70 21.1 43 6.1 38 38 undefined N/A 29.97 1015 N/A 0.00 0.00
6:54 pm 18:54 undefined 68 20 44 6.7 42 42 undefined N/A 29.96 1015 N/A 0.00 0.00
7:54 pm 19:54 undefined 67 19.4 45 7.2 45 45 undefined N/A 29.95 1014 N/A 0.00 0.00
8:54 pm 20:54 undefined 65 18.3 46 7.8 50 50 undefined N/A 29.96 1015 N/A 0.00 0.00
9:54 pm 21:54 undefined 64 17.8 47 8.3 54 54 undefined N/A 29.94 1014 N/A 0.00 0.00
10:54 pm 22:54 undefined 63 17.2 48 8.9 58 58 undefined N/A 29.93 1014 N/A 0.00 0.00
11:54 pm 23:54 undefined 63 17.2 48 8.9 58 58 undefined N/A 29.93 1014 N/A 0.00 0.00

Powered by AerisWeather